Flag for Switzerland Weather past 2 weeks in Sion, Valais, Switzerland

Now
44 °F

Quite cool.


Feels Like: 42 °F
Forecast: 39 / 61 °F
Wind: 5 mph from East

Location: Sion

Current Time: Oct 25, 2014 at 1:07:42 AM

Latest Report: Oct 25, 2014 at 12:00 AM


Visibility: N/A

Pressure: 30.22 "Hg

Humidity: 79%

Dew point: 38 °F

Location of SionLocation

Historic Weather in Sion — Graph

°F

Sion temperature yesterday

Maximum temperature yesterday: 57 °F (at 4:00 PM)
Minimum temperature yesterday: 35 °F (at 7:00 AM)
Average temperature yesterday: 43 °F

Past Weeks' High & Low Weather Summary

 TemperatureHumidityPressure
High75 °F (Oct 12, 4:00 PM)99% (Oct 14, 3:00 AM)30.37 "Hg (Oct 14, 3:00 AM)
Low35 °F (Oct 24, 7:00 AM)40% (Oct 12, 4:00 PM)29.75 "Hg (Oct 15, 4:00 PM)
Average55 °F79%30.04 "Hg
* Reported Oct 9 11:00 PM — Oct 24 11:00 PM, Sion, Weather by CustomWeather, © 2014

Note: Actual official high and low records may vary slightly from our data, if they occured in-between our weather recording intervals... More about our weather records

Advertising

Sion weather history for previous 24 hours

 ConditionsComfort  
Time TempWeatherWind HumidityBarometerVisibility
11:00 PM
Oct 24
42 °FPassing clouds.2 mph82%30.23 "Hg14 mi
10:00 PM42 °FQuite cool.2 mph83%30.22 "HgN/A
9:00 PM44 °FQuite cool.1 mph78%30.19 "HgN/A
8:00 PM43 °FPassing clouds.2 mph80%30.17 "Hg16 mi
7:00 PM47 °FCool.3 mph74%30.14 "HgN/A
6:00 PM53 °FCool.6 mph59%30.10 "HgN/A
5:00 PM56 °FRefreshingly cool.6 mph49%30.08 "HgN/A
4:00 PM57 °FRefreshingly cool.5 mph45%30.08 "HgN/A
3:00 PM56 °FRefreshingly cool.3 mph45%30.09 "HgN/A
2:00 PM54 °FSunny.3 mph46%30.12 "Hg22 mi
1:00 PM51 °FCool.2 mph53%30.16 "HgN/A
12:00 PM47 °FCool.1 mph61%30.20 "HgN/A
11:00 AM43 °FSunny.2 mph75%30.24 "Hg22 mi
10:00 AM37 °FChilly.2 mph88%30.27 "HgN/A
9:00 AM35 °FChilly.1 mph90%30.27 "HgN/A
8:00 AM36 °FSunny.3 mph89%30.26 "Hg12 mi
7:00 AM35 °FChilly.2 mph92%30.27 "HgN/A
6:00 AM36 °FChilly.2 mph90%30.27 "HgN/A
5:00 AM36 °FChilly.2 mph91%30.26 "HgN/A
4:00 AM36 °FChilly.1 mph88%30.27 "HgN/A
3:00 AM36 °FChilly.1 mph90%30.27 "HgN/A
2:00 AM37 °FClear.2 mph90%30.27 "Hg16 mi
1:00 AM38 °FChilly.2 mph88%30.28 "HgN/A
Weather by CustomWeather, © 2014

See weather overviewHow to use our weather pages